Location: Newark
(52.8300°N, 8.0000°E)
Time: 21:18:35
(UTC+00:00)

STARLINK-1101 - Pass Details

Date: 31 January 2020
Orbit: 549 x 551 km, 53.0° (Epoch: 25 February)

Event Time Altitude Azimuth Distance (km) Brightness Sun altitude
Rises 18:41:20 0° 283° (WNW) 2,716 8.5 -22.8°
Reaches altitude 10° 18:44:25 10° 258° (WSW) 1,818 7.3 -23.2°
Maximum altitude 18:46:39 14° 225° (SW) 1,558 6.4 -23.6°
Drops below altitude 10° 18:48:52 10° 193° (SSW) 1,811 6.4 -23.9°
Enters shadow 18:49:47 - 183° (S) 2,033 6.5 -24.0°
